TimeCET,TemperatureF,Dew PointF,Humidity,Sea Level PressureIn,VisibilityMPH,Wind Direction,Wind SpeedMPH,Gust SpeedMPH,PrecipitationIn,Events,Conditions,WindDirDegrees,DateUTC
12:00 AM,50.0,50.0,100,29.92,5.0,East,6.9,-,N/A,,Unknown,100,2012-11-03 23:00:00
12:30 AM,50.0,50.0,100,29.92,-9999.0,ESE,9.2,-,N/A,,Clear,110,2012-11-03 23:30:00
1:00 AM,46.4,46.4,100,29.92,5.0,ESE,8.1,-,N/A,,Unknown,110,2012-11-04 00:00:00
1:30 AM,46.4,44.6,93,29.92,3.7,East,8.1,-,N/A,,Unknown,90,2012-11-04 00:30:00
2:00 AM,44.6,44.6,100,29.89,5.0,East,6.9,-,N/A,,Unknown,100,2012-11-04 01:00:00
2:30 AM,46.4,44.6,93,29.89,5.0,ESE,8.1,-,N/A,,Unknown,110,2012-11-04 01:30:00
3:00 AM,42.8,42.8,100,29.89,5.0,East,5.8,-,N/A,Fog,Fog,100,2012-11-04 02:00:00
3:30 AM,44.6,44.6,100,29.89,5.0,East,5.8,-,N/A,Fog,Fog,100,2012-11-04 02:30:00
4:00 AM,44.6,44.6,100,29.89,5.0,East,8.1,-,N/A,Fog,Fog,100,2012-11-04 03:00:00
4:30 AM,41.0,41.0,100,29.89,5.0,ESE,8.1,-,N/A,Fog,Fog,110,2012-11-04 03:30:00
5:00 AM,46.4,46.4,100,29.89,6.2,ESE,8.1,-,N/A,Fog,Shallow Fog,110,2012-11-04 04:00:00
5:30 AM,44.6,44.6,100,29.89,6.2,Variable,3.5,-,N/A,Fog,Shallow Fog,0,2012-11-04 04:30:00
6:00 AM,44.6,44.6,100,29.86,5.0,East,6.9,-,N/A,,Unknown,90,2012-11-04 05:00:00
6:30 AM,44.6,44.6,100,29.89,5.0,East,4.6,-,N/A,,Unknown,100,2012-11-04 05:30:00
7:00 AM,44.6,42.8,93,29.89,5.0,Variable,3.5,-,N/A,,Unknown,0,2012-11-04 06:00:00
7:30 AM,44.6,42.8,93,29.89,5.0,East,4.6,-,N/A,,Unknown,90,2012-11-04 06:30:00
8:00 AM,46.4,46.4,100,29.89,-9999.0,ESE,5.8,-,N/A,,Clear,110,2012-11-04 07:00:00
8:30 AM,50.0,48.2,94,29.89,-9999.0,SE,6.9,-,N/A,,Clear,130,2012-11-04 07:30:00
9:00 AM,50.0,46.4,87,29.89,-9999.0,Variable,3.5,-,N/A,,Clear,0,2012-11-04 08:00:00
9:30 AM,53.6,48.2,82,29.89,-9999.0,Variable,3.5,-,N/A,,Clear,0,2012-11-04 08:30:00
10:00 AM,57.2,50.0,77,29.89,-9999.0,South,5.8,-,N/A,,Clear,180,2012-11-04 09:00:00
10:30 AM,59.0,50.0,72,29.89,-9999.0,South,10.4,-,N/A,,Clear,190,2012-11-04 09:30:00
11:00 AM,60.8,48.2,63,29.89,-9999.0,South,13.8,-,N/A,,Clear,180,2012-11-04 10:00:00
11:30 AM,62.6,50.0,63,29.86,-9999.0,South,11.5,-,N/A,,Clear,180,2012-11-04 10:30:00
12:00 PM,64.4,50.0,59,29.86,6.2,South,12.7,25.3,N/A,,Partly Cloudy,190,2012-11-04 11:00:00
12:30 PM,64.4,50.0,59,29.83,6.2,South,13.8,-,N/A,,Partly Cloudy,190,2012-11-04 11:30:00
1:00 PM,64.4,50.0,59,29.83,6.2,South,15.0,-,N/A,,Scattered Clouds,180,2012-11-04 12:00:00
1:30 PM,64.4,50.0,59,29.83,6.2,South,16.1,-,N/A,,Scattered Clouds,180,2012-11-04 12:30:00
2:00 PM,64.4,50.0,59,29.80,6.2,South,12.7,-,N/A,,Scattered Clouds,180,2012-11-04 13:00:00
2:30 PM,64.4,50.0,59,29.83,6.2,South,15.0,-,N/A,,Scattered Clouds,190,2012-11-04 13:30:00
3:00 PM,64.4,50.0,59,29.80,6.2,South,10.4,-,N/A,,Scattered Clouds,170,2012-11-04 14:00:00
3:30 PM,64.4,50.0,59,29.80,-9999.0,South,13.8,-,N/A,,Clear,170,2012-11-04 14:30:00
4:00 PM,62.6,50.0,63,29.80,-9999.0,South,11.5,-,N/A,,Clear,170,2012-11-04 15:00:00
4:30 PM,60.8,50.0,68,29.80,-9999.0,South,12.7,-,N/A,,Clear,170,2012-11-04 15:30:00
5:00 PM,60.8,50.0,68,29.80,-9999.0,SSE,8.1,-,N/A,,Clear,160,2012-11-04 16:00:00
5:30 PM,60.8,50.0,68,29.80,-9999.0,SSE,6.9,-,N/A,,Clear,150,2012-11-04 16:30:00
6:00 PM,60.8,50.0,68,29.80,-9999.0,SSE,9.2,-,N/A,,Clear,160,2012-11-04 17:00:00
6:30 PM,59.0,50.0,72,29.80,6.2,SSE,8.1,-,N/A,Rain,Light Rain Showers,150,2012-11-04 17:30:00
7:00 PM,59.0,51.8,77,29.80,6.2,SSE,8.1,-,N/A,Rain,Light Rain Showers,150,2012-11-04 18:00:00
7:30 PM,59.0,50.0,72,29.77,-9999.0,SSE,8.1,-,N/A,,Clear,150,2012-11-04 18:30:00
8:00 PM,59.0,50.0,72,29.77,-9999.0,SE,9.2,-,N/A,,Clear,140,2012-11-04 19:00:00
8:30 PM,59.0,50.0,72,29.77,-9999.0,SE,9.2,-,N/A,,Clear,130,2012-11-04 19:30:00
9:00 PM,57.2,50.0,77,29.77,-9999.0,SE,8.1,-,N/A,,Clear,130,2012-11-04 20:00:00
9:30 PM,59.0,50.0,72,29.74,-9999.0,SE,8.1,-,N/A,,Clear,130,2012-11-04 20:30:00
10:00 PM,59.0,50.0,72,29.74,-9999.0,SE,8.1,-,N/A,,Clear,140,2012-11-04 21:00:00
10:30 PM,59.0,50.0,72,29.71,-9999.0,SSE,8.1,-,N/A,,Clear,150,2012-11-04 21:30:00
11:00 PM,59.0,50.0,72,29.71,6.2,SE,8.1,-,N/A,,Overcast,140,2012-11-04 22:00:00
11:30 PM,57.2,50.0,77,29.71,-9999.0,SE,9.2,-,N/A,,Clear,130,2012-11-04 22:30:00